GW5568 Weather Reports


time (UTC)temp
C
wind
direction
speed
KPH
gust
KPH
rain 1hr
cm
rain 24hr
cm
rain mn
cm
humidity
%
barometer
mb
20260507110052 12 0 0.0 0.0 0.00 0.00 0.00 75 1020.5
20260507104601 12 0 0.0 0.0 0.00 0.00 0.00 75 1020.6
20260507103053 12 0 0.0 0.0 0.00 0.00 0.00 76 1020.7
20260507101557 12 0 0.0 0.0 0.00 0.00 0.00 76 1020.7
20260507100100 12 0 0.0 0.0 0.00 0.00 0.00 77 1020.8
20260507094605 12 0 0.0 0.0 0.00 0.00 0.00 76 1020.9
20260507093056 13 0 0.0 0.0 0.00 0.00 0.00 77 1020.9
20260507091557 13 0 0.0 0.0 0.00 0.00 0.00 78 1021.0
20260507090057 13 0 0.0 0.0 0.00 0.00 0.00 79 1021.1
20260507084559 13 0 0.0 0.0 0.00 0.00 0.00 79 1021.2
20260507083053 13 0 0.0 0.0 0.00 0.00 0.00 79 1021.1
20260507081552 13 0 0.0 0.0 0.00 0.00 0.00 79 1021.2
20260507080056 13 0 0.0 0.0 0.00 0.00 0.00 79 1021.1
20260507074552 13 0 0.0 0.0 0.00 0.00 0.00 79 1021.1
20260507073058 13 0 0.0 0.0 0.00 0.00 0.00 79 1021.0
20260507071554 14 0 0.0 0.0 0.00 0.00 0.00 78 1020.9
20260507070104 14 0 0.0 0.0 0.00 0.00 0.00 78 1021.0
20260507064553 14 0 0.0 0.0 0.00 0.00 0.00 78 1021.0
20260507063056 14 0 0.0 0.0 0.00 0.00 0.00 78 1021.1
20260507061552 15 0 0.0 0.0 0.00 0.00 0.00 77 1021.0
20260507060053 15 0 0.0 0.0 0.00 0.00 0.00 78 1021.0
20260507054552 15 0 0.0 0.0 0.00 0.00 0.00 77 1020.9
20260507053052 15 0 0.0 0.0 0.00 0.00 0.00 77 1021.0
20260507051559 15 0 0.0 0.0 0.00 0.00 0.00 79 1021.0
20260507050110 15 0 0.0 1.6 0.00 0.00 0.00 79 1020.9
20260507044557 15 0 0.0 1.6 0.00 0.00 0.00 77 1020.8
20260507043054 15 0 0.0 0.0 0.00 0.00 0.00 77 1020.7
20260507041553 15 0 0.0 0.0 0.00 0.00 0.00 76 1020.7
20260507040103 16 0 0.0 3.2 0.00 0.00 0.00 75 1020.5
20260507034559 16 0 0.0 0.0 0.00 0.00 0.00 74 1020.2
20260507033055 16 0 0.0 0.0 0.00 0.00 0.00 73 1020.1
20260507031554 17 0 0.0 1.6 0.00 0.00 0.00 73 1019.8
20260507030052 17 0 0.0 1.6 0.00 0.00 0.00 72 1019.6
20260507024552 18 0 0.0 0.0 0.00 0.00 0.00 69 1019.5
20260507023052 18 0 0.0 0.0 0.00 0.00 0.00 68 1019.4
20260507021559 18 0 0.0 0.0 0.00 0.00 0.00 68 1019.4
20260507020057 19 0 0.0 0.0 0.00 0.00 0.00 67 1019.4
20260507014558 20 0 0.0 0.0 0.00 0.00 0.00 66 1019.3
20260507013053 21 0 0.0 0.0 0.00 0.00 0.00 63 1019.2
20260507011557 22 0 0.0 0.0 0.00 0.00 0.00 61 1019.1
20260507010054 22 0 0.0 0.0 0.00 0.00 0.00 60 1019.1
20260507004556 22 0 0.0 1.6 0.00 0.00 0.00 60 1019.0
20260507003057 22 0 0.0 0.0 0.00 0.00 0.00 62 1018.9
20260507001603 21 0 0.0 1.6 0.00 0.00 0.00 64 1019.1
20260507000058 21 0 0.0 1.6 0.00 0.00 0.00 67 1018.9
20260506234624 21 0 0.0 1.6 0.00 0.00 0.00 69 1018.9
20260506233055 21 0 0.0 0.0 0.00 0.00 0.00 65 1019.1
20260506231556 21 0 0.0 3.2 0.00 0.00 0.00 67 1019.3
20260506230059 21 0 0.0 1.6 0.00 0.00 0.00 68 1019.6
20260506224552 20 0 0.0 1.6 0.00 0.00 0.00 69 1019.7
20260506223058 20 0 0.0 3.2 0.00 0.00 0.00 70 1019.8
20260506221554 20 0 0.0 1.6 0.00 0.00 0.00 69 1019.9
20260506220058 20 0 0.0 0.0 0.00 0.00 0.00 69 1019.7
20260506214551 19 0 0.0 1.6 0.00 0.00 0.00 71 1020.0
20260506213053 19 0 0.0 0.0 0.00 0.00 0.00 72 1020.2
20260506211552 18 0 0.0 1.6 0.00 0.00 0.00 74 1020.3
20260506210054 18 0 0.0 9.7 0.00 0.00 0.00 76 1020.3
20260506204558 17 0 0.0 1.6 0.00 0.00 0.00 76 1020.3
20260506203052 17 0 0.0 1.6 0.00 0.00 0.00 78 1020.6
20260506201557 17 0 0.0 0.0 0.00 0.00 0.00 78 1020.7
20260506200108 17 0 0.0 1.6 0.00 0.00 0.00 77 1020.7
20260506194606 16 0 0.0 1.6 0.00 0.00 0.00 79 1020.8
20260506193053 16 0 0.0 1.6 0.00 0.00 0.00 80 1020.8
20260506191555 16 0 0.0 1.6 0.00 0.00 0.00 80 1020.7
20260506190054 16 0 0.0 1.6 0.00 0.00 0.00 80 1020.7
20260506184605 16 0 0.0 1.6 0.00 0.00 0.00 81 1020.8
20260506183104 16 0 0.0 0.0 0.00 0.00 0.00 81 1020.7
20260506181559 15 0 0.0 1.6 0.00 0.00 0.00 81 1020.9
20260506180100 15 0 0.0 3.2 0.00 0.00 0.00 81 1020.8
20260506174556 15 0 0.0 1.6 0.00 0.00 0.00 82 1020.6
20260506173104 15 0 0.0 1.6 0.00 0.00 0.00 82 1020.6
20260506171600 15 0 0.0 1.6 0.00 0.00 0.00 82 1020.7
20260506170056 15 0 0.0 1.6 0.00 0.00 0.00 82 1020.5
20260506164559 14 0 0.0 1.6 0.00 0.00 0.00 83 1020.6
20260506163056 14 0 0.0 0.0 0.00 0.00 0.00 82 1020.6
20260506161607 14 0 0.0 1.6 0.00 0.00 0.00 83 1020.5
20260506160059 13 0 0.0 0.0 0.00 0.00 0.00 85 1019.9
20260506154558 13 0 0.0 0.0 0.00 0.00 0.00 85 1020.3
20260506153055 13 0 0.0 1.6 0.00 0.00 0.00 86 1020.7
20260506151608 13 0 0.0 0.0 0.00 0.00 0.00 86 1020.6
20260506150053 13 0 0.0 0.0 0.00 0.00 0.00 85 1020.8
20260506144552 13 0 0.0 0.0 0.00 0.00 0.00 87 1020.6
20260506143056 13 0 0.0 0.0 0.00 0.00 0.00 87 1019.8
20260506141554 13 0 0.0 0.0 0.00 0.00 0.00 88 1019.5
20260506140105 12 0 0.0 0.0 0.00 0.00 0.00 89 1019.6
20260506134558 12 0 0.0 0.0 0.00 0.00 0.00 89 1019.6
20260506133058 12 0 0.0 0.0 0.00 0.00 0.00 89 1019.6
20260506131557 12 0 0.0 1.6 0.00 0.00 0.00 89 1019.5
20260506130120 13 0 0.0 1.6 0.00 0.00 0.00 88 1019.3
20260506124553 13 0 0.0 1.6 0.00 0.00 0.00 88 1019.3
20260506123053 13 0 0.0 0.0 0.00 0.00 0.00 86 1019.4
20260506121555 13 0 0.0 0.0 0.00 0.00 0.00 87 1019.3
20260506114555 13 0 0.0 1.6 0.00 0.00 0.00 87 1019.0
20260506113105 13 0 0.0 1.6 0.00 0.00 0.00 86 1018.7
20260506111551 13 0 0.0 1.6 0.00 0.00 0.00 85 1018.5